Ames, IA

10:35 PM CDT on May 22, 2017 (GMT -0500)
Ames Municipal

Weather History for KAMW - December, 2010

Change the Weather History Date:

Saturday, December 4, 2010

  Actual Average Record
Temperature  
Mean Temperature 21 °F 27 °F  
Max Temperature 29 °F 36 °F 68 °F (1998)
Min Temperature 13 °F 18 °F -4 °F (2005)
Degree Days  
Heating Degree Days 44 38  
Month to date heating degree days 165 150  
Since 1 July heating degree days 1416 1604  
Cooling Degree Days 0 0  
Month to date cooling degree days 0 0  
Year to date cooling degree days 980 752  
Moisture  
Dew Point 19 °F    
Average Humidity 80    
Maximum Humidity 92    
Minimum Humidity 68    
Precipitation  
Precipitation T in 0.05 in 0.32 in (2016)
Month to date precipitation T 0.23  
Year to date precipitation 49.14  
Sea Level Pressure  
Sea Level Pressure 30.23 in    
Wind  
Wind Speed 14 mph (NNW)    
Max Wind Speed 28 mph    
Max Gust Speed 35 mph    
Visibility 7 miles    
Events Snow    
T = Trace of Precipitation, MM = Missing Value Source: NWS Daily Summary

Daily Weather History Graph

Daily Weather History Graph

Search for Another Location

Airport or City:

Trip Planner

Search our weather history database for the weather conditions in past years. The results will help you decide how hot, cold, wet, or windy it might be!

Date:

Astronomy

Dec. 04, 2010 Rise Set
Actual Time 7:25 AM CST 4:43 PM CST
Civil Twilight 6:54 AM CST 5:14 PM CST
Nautical Twilight 6:19 AM CST 5:49 PM CST
Astronomical Twilight 5:46 AM CST 6:23 PM CST
Moon 6:24 AM CST (12/4) 3:46 PM CST (12/4)
Length of Visible Light 10h 19m
Length of Day
9h 17m
Waning Crescent, 1% of the Moon is Illuminated
Dec 4
Waning Crescent
Dec 5
New
Dec 13
First Quarter
Dec 21
Full
Dec 27
Last Quarter

Hourly Weather History & Observations

Time (CST) Temp. Windchill Dew Point Humidity Pressure Visibility Wind Dir Wind Speed Gust Speed Precip Events Conditions
12:22 AM 28.4 °F 22.2 °F 23.0 °F 80% 29.98 in 3.0 mi ESE 5.8 mph - 0.00 in Snow Light Snow
12:27 AM 28.4 °F 22.2 °F 24.8 °F 86% 29.98 in 2.0 mi SE 5.8 mph - 0.00 in Snow Light Snow
12:40 AM 28.4 °F 24.6 °F 24.8 °F 86% 29.98 in 6.0 mi East 3.5 mph - 0.00 in Snow Light Snow
12:53 AM 28.9 °F - 24.1 °F 82% 30.00 in 8.0 mi Calm Calm - 0.00 in   Overcast
1:53 AM 28.9 °F - 24.1 °F 82% 30.02 in 8.0 mi Calm Calm - N/A   Overcast
2:44 AM 28.4 °F - 24.8 °F 86% 30.00 in 8.0 mi Calm Calm - N/A   Overcast
2:53 AM 28.9 °F 25.2 °F 25.0 °F 85% 30.03 in 8.0 mi NNE 3.5 mph - N/A   Overcast
4:10 AM 28.4 °F 20.4 °F 26.6 °F 93% 30.03 in 2.5 mi NNW 8.1 mph - N/A   Overcast
4:53 AM 28.0 °F 19.3 °F 26.1 °F 92% 30.08 in 2.5 mi NNW 9.2 mph - N/A   Overcast
5:18 AM 28.4 °F 17.5 °F 26.6 °F 93% 30.06 in 3.0 mi NNW 13.8 mph - N/A   Overcast
5:53 AM 27.0 °F 13.9 °F 24.1 °F 89% 30.11 in 5.0 mi NNW 18.4 mph 25.3 mph N/A   Overcast
6:13 AM 26.6 °F 13.4 °F 24.8 °F 93% 30.09 in 7.0 mi NNW 18.4 mph 26.5 mph N/A   Overcast
6:37 AM 26.6 °F 13.8 °F 23.0 °F 86% 30.10 in 8.0 mi NNW 17.3 mph 27.6 mph N/A   Overcast
6:53 AM 26.1 °F 12.7 °F 21.9 °F 84% 30.15 in 7.0 mi NNW 18.4 mph 27.6 mph N/A   Overcast
7:36 AM 24.8 °F 8.4 °F 19.4 °F 80% 30.15 in 8.0 mi NNW 27.6 mph 34.5 mph N/A   Overcast
7:53 AM 23.0 °F 7.2 °F 18.0 °F 81% 30.20 in 7.0 mi NNW 23.0 mph 31.1 mph N/A   Overcast
8:05 AM 23.0 °F 6.9 °F 17.6 °F 80% 30.18 in 6.0 mi NNW 24.2 mph 33.4 mph N/A   Haze
8:38 AM 21.2 °F 6.0 °F 17.6 °F 86% 30.21 in 5.0 mi NNW 19.6 mph 26.5 mph N/A   Haze
8:53 AM 21.9 °F 9.2 °F 18.0 °F 85% 30.25 in 6.0 mi NNW 13.8 mph 29.9 mph N/A   Overcast
9:19 AM 21.2 °F 5.6 °F 15.8 °F 80% 30.23 in 6.0 mi NNW 20.7 mph 31.1 mph N/A   Haze
9:51 AM 21.2 °F 4.9 °F 15.8 °F 80% 30.26 in 6.0 mi NNW 23.0 mph 29.9 mph N/A   Haze
10:53 AM 23.0 °F 8.0 °F 18.0 °F 81% 30.32 in 6.0 mi NNW 20.7 mph 27.6 mph N/A   Haze
11:01 AM 23.0 °F 8.3 °F 17.6 °F 80% 30.28 in 6.0 mi NNW 19.6 mph - N/A   Haze
11:53 AM 24.1 °F 8.0 °F 17.1 °F 75% 30.32 in 10.0 mi NNW 25.3 mph 31.1 mph N/A   Overcast
12:14 PM 23.0 °F 8.3 °F 15.8 °F 74% 30.29 in 9.0 mi North 19.6 mph 31.1 mph N/A   Overcast
12:53 PM 24.1 °F 9.8 °F 17.1 °F 75% 30.32 in 10.0 mi NNW 19.6 mph 29.9 mph N/A   Overcast
1:04 PM 24.8 °F 10.3 °F 17.6 °F 74% 30.29 in 10.0 mi North 20.7 mph 29.9 mph N/A   Overcast
1:53 PM 24.1 °F 9.0 °F 17.1 °F 75% 30.33 in 10.0 mi North 21.9 mph 26.5 mph N/A   Overcast
2:53 PM 24.1 °F 11.0 °F 17.1 °F 75% 30.35 in 8.0 mi North 16.1 mph - N/A   Overcast
3:53 PM 24.1 °F 11.0 °F 16.0 °F 71% 30.38 in 10.0 mi NNW 16.1 mph 23.0 mph N/A   Overcast
4:53 PM 21.9 °F 9.2 °F 16.0 °F 78% 30.41 in 10.0 mi NW 13.8 mph 21.9 mph N/A   Overcast
5:53 PM 21.9 °F 8.7 °F 16.0 °F 78% 30.43 in 10.0 mi NW 15.0 mph 23.0 mph N/A   Overcast
6:53 PM 21.0 °F 9.9 °F 15.1 °F 78% 30.45 in 10.0 mi NW 10.4 mph - N/A   Overcast
7:53 PM 19.0 °F 3.6 °F 12.0 °F 74% 30.47 in 9.0 mi NW 18.4 mph 23.0 mph N/A   Overcast
8:39 PM 15.8 °F 0.9 °F 10.4 °F 79% 30.43 in 10.0 mi NNW 15.0 mph - N/A   Scattered Clouds
8:53 PM 16.0 °F 2.9 °F 10.0 °F 77% 30.48 in 10.0 mi NNW 11.5 mph - N/A   Clear
9:53 PM 15.1 °F -1.1 °F 9.0 °F 77% 30.48 in 10.0 mi NNW 17.3 mph - N/A   Clear
10:53 PM 14.0 °F 0.5 °F 8.1 °F 77% 30.49 in 10.0 mi NNW 11.5 mph - N/A   Clear
11:53 PM 12.9 °F -0.9 °F 7.0 °F 77% 30.50 in 10.0 mi NNW 11.5 mph - N/A   Clear